| time (UTC) | temp F | wind direction | speed MPH | gust MPH | rain 1hr in | rain 24hr in | rain mn in | humidity % | barometer mb |
| 20260508174522 | 66 | 248 | 7.0 | 13.0 | 0.00 | 0.00 | 0.00 | 49 | 1013.8 |
| 20260508173020 | 65 | 285 | 6.0 | 15.0 | 0.00 | 0.00 | 0.00 | 50 | 1014.1 |
| 20260508171529 | 65 | 201 | 3.0 | 14.0 | 0.00 | 0.00 | 0.00 | 54 | 1014.2 |
| 20260508170017 | 64 | 279 | 5.0 | 9.0 | 0.00 | 0.00 | 0.00 | 53 | 1014.3 |
| 20260508164522 | 64 | 238 | 5.0 | 15.0 | 0.00 | 0.00 | 0.00 | 54 | 1014.6 |
| 20260508163015 | 63 | 262 | 6.0 | 15.0 | 0.00 | 0.00 | 0.00 | 54 | 1014.8 |
| 20260508161530 | 63 | 281 | 8.0 | 14.0 | 0.00 | 0.00 | 0.00 | 54 | 1015.0 |
| 20260508160020 | 64 | 225 | 7.0 | 14.0 | 0.00 | 0.00 | 0.00 | 53 | 1014.8 |
| 20260508154512 | 62 | 273 | 7.0 | 14.0 | 0.00 | 0.00 | 0.00 | 56 | 1015.1 |
| 20260508153015 | 62 | 271 | 8.0 | 17.0 | 0.00 | 0.00 | 0.00 | 55 | 1015.3 |
| 20260508151511 | 62 | 261 | 5.0 | 14.0 | 0.00 | 0.00 | 0.00 | 55 | 1015.7 |
| 20260508150019 | 61 | 298 | 6.0 | 15.0 | 0.00 | 0.00 | 0.00 | 56 | 1015.7 |
| 20260508144530 | 61 | 250 | 8.0 | 16.0 | 0.00 | 0.00 | 0.00 | 54 | 1015.8 |
| 20260508143025 | 60 | 239 | 6.0 | 14.0 | 0.00 | 0.00 | 0.00 | 56 | 1015.8 |
| 20260508141521 | 60 | 212 | 4.0 | 13.0 | 0.00 | 0.00 | 0.00 | 57 | 1015.8 |
| 20260508140011 | 58 | 239 | 5.0 | 11.0 | 0.00 | 0.00 | 0.00 | 59 | 1015.8 |
| 20260508134508 | 56 | 296 | 4.0 | 11.0 | 0.00 | 0.00 | 0.00 | 62 | 1016.2 |
| 20260508133013 | 56 | 192 | 5.0 | 10.0 | 0.00 | 0.00 | 0.00 | 62 | 1016.2 |
| 20260508131512 | 55 | 168 | 4.0 | 9.0 | 0.00 | 0.00 | 0.00 | 63 | 1016.0 |
| 20260508130014 | 54 | 178 | 4.0 | 11.0 | 0.00 | 0.00 | 0.00 | 64 | 1015.9 |
| 20260508124512 | 54 | 306 | 5.0 | 10.0 | 0.00 | 0.00 | 0.00 | 64 | 1015.9 |
| 20260508123032 | 52 | 181 | 3.0 | 9.0 | 0.00 | 0.00 | 0.00 | 67 | 1015.9 |
| 20260508121516 | 50 | 215 | 3.0 | 7.0 | 0.00 | 0.00 | 0.00 | 71 | 1015.8 |
| 20260508120014 | 48 | 287 | 1.0 | 4.0 | 0.00 | 0.00 | 0.00 | 72 | 1015.7 |
| 20260508114525 | 47 | 231 | 1.0 | 4.0 | 0.00 | 0.00 | 0.00 | 73 | 1015.7 |
| 20260508113010 | 46 | 211 | 1.0 | 3.0 | 0.00 | 0.00 | 0.00 | 74 | 1015.5 |
| 20260508111527 | 45 | 211 | 1.0 | 4.0 | 0.00 | 0.00 | 0.00 | 75 | 1015.5 |
| 20260508110008 | 45 | 203 | 1.0 | 3.0 | 0.00 | 0.00 | 0.00 | 75 | 1015.3 |
| 20260508104532 | 45 | 274 | 2.0 | 5.0 | 0.00 | 0.00 | 0.00 | 75 | 1015.2 |
| 20260508103005 | 44 | 226 | 2.0 | 6.0 | 0.00 | 0.00 | 0.00 | 76 | 1015.1 |
| 20260508101507 | 44 | 217 | 1.0 | 3.0 | 0.00 | 0.00 | 0.00 | 75 | 1015.1 |
| 20260508100033 | 44 | 202 | 1.0 | 4.0 | 0.00 | 0.00 | 0.00 | 75 | 1015.0 |
| 20260508094508 | 44 | 218 | 1.0 | 2.0 | 0.00 | 0.00 | 0.00 | 76 | 1015.0 |
| 20260508093026 | 43 | 218 | 0.0 | 2.0 | 0.00 | 0.00 | 0.00 | 77 | 1015.3 |
| 20260508091527 | 44 | 222 | 0.0 | 2.0 | 0.00 | 0.00 | 0.00 | 77 | 1015.1 |
| 20260508090007 | 44 | 222 | 1.0 | 3.0 | 0.00 | 0.00 | 0.00 | 76 | 1015.3 |
| 20260508084527 | 45 | 221 | 1.0 | 4.0 | 0.00 | 0.00 | 0.00 | 75 | 1015.3 |
| 20260508083009 | 45 | 260 | 2.0 | 4.0 | 0.00 | 0.00 | 0.00 | 74 | 1015.3 |
| 20260508081507 | 46 | 227 | 1.0 | 3.0 | 0.00 | 0.00 | 0.00 | 73 | 1015.2 |
| 20260508080005 | 45 | 229 | 2.0 | 7.0 | 0.00 | 0.00 | 0.00 | 75 | 1015.2 |
| 20260508074516 | 44 | 190 | 0.0 | 2.0 | 0.00 | 0.00 | 0.00 | 77 | 1015.5 |
| 20260508073008 | 46 | 261 | 1.0 | 4.0 | 0.00 | 0.00 | 0.00 | 74 | 1015.4 |
| 20260508071506 | 46 | 211 | 1.0 | 5.0 | 0.00 | 0.00 | 0.00 | 72 | 1015.2 |
| 20260508070007 | 46 | 230 | 1.0 | 3.0 | 0.00 | 0.00 | 0.00 | 72 | 1015.3 |
| 20260508064548 | 47 | 210 | 0.0 | 2.0 | 0.00 | 0.00 | 0.00 | 72 | 1015.3 |
| 20260508063007 | 48 | 209 | 1.0 | 3.0 | 0.00 | 0.00 | 0.00 | 71 | 1015.5 |
| 20260508061527 | 47 | 190 | 1.0 | 4.0 | 0.00 | 0.00 | 0.00 | 71 | 1015.5 |
| 20260508060031 | 48 | 219 | 1.0 | 3.0 | 0.00 | 0.00 | 0.00 | 71 | 1015.5 |
| 20260508054546 | 47 | 226 | 0.0 | 3.0 | 0.00 | 0.00 | 0.00 | 72 | 1015.6 |
| 20260508053024 | 47 | 243 | 0.0 | 0.0 | 0.00 | 0.00 | 0.00 | 75 | 1015.6 |
| 20260508051511 | 46 | 243 | 0.0 | 0.0 | 0.00 | 0.00 | 0.00 | 74 | 1015.7 |
| 20260508050036 | 46 | 243 | 0.0 | 0.0 | 0.00 | 0.00 | 0.00 | 74 | 1015.9 |
| 20260508044526 | 46 | 243 | 0.0 | 0.0 | 0.00 | 0.00 | 0.00 | 74 | 1015.8 |
| 20260508043036 | 45 | 243 | 0.0 | 0.0 | 0.00 | 0.00 | 0.00 | 75 | 1015.8 |
| 20260508041528 | 45 | 243 | 0.0 | 0.0 | 0.00 | 0.00 | 0.00 | 75 | 1015.8 |
| 20260508040021 | 45 | 243 | 0.0 | 0.0 | 0.00 | 0.00 | 0.00 | 74 | 1015.6 |
| 20260508034527 | 46 | 243 | 0.0 | 0.0 | 0.00 | 0.00 | 0.00 | 72 | 1015.6 |
| 20260508033020 | 46 | 243 | 0.0 | 0.0 | 0.00 | 0.00 | 0.00 | 72 | 1015.5 |
| 20260508031522 | 46 | 243 | 0.0 | 0.0 | 0.00 | 0.00 | 0.00 | 74 | 1015.4 |
| 20260508030023 | 46 | 243 | 0.0 | 0.0 | 0.00 | 0.00 | 0.00 | 74 | 1015.7 |
| 20260508024521 | 46 | 243 | 0.0 | 0.0 | 0.00 | 0.00 | 0.00 | 72 | 1015.7 |
| 20260508023021 | 47 | 243 | 0.0 | 0.0 | 0.00 | 0.00 | 0.00 | 71 | 1015.8 |
| 20260508021519 | 47 | 243 | 0.0 | 0.0 | 0.00 | 0.00 | 0.00 | 69 | 1015.7 |
| 20260508020018 | 48 | 243 | 0.0 | 0.0 | 0.00 | 0.00 | 0.00 | 69 | 1015.8 |
| 20260508014520 | 49 | 243 | 0.0 | 0.0 | 0.00 | 0.00 | 0.00 | 67 | 1015.6 |
| 20260508013018 | 50 | 243 | 0.0 | 0.0 | 0.00 | 0.00 | 0.00 | 64 | 1015.7 |
| 20260508011524 | 50 | 243 | 0.0 | 0.0 | 0.00 | 0.00 | 0.00 | 62 | 1015.6 |
| 20260508010026 | 52 | 243 | 0.0 | 0.0 | 0.00 | 0.00 | 0.00 | 60 | 1015.5 |
| 20260508004530 | 52 | 243 | 0.0 | 0.0 | 0.00 | 0.00 | 0.00 | 60 | 1015.4 |
| 20260508003020 | 53 | 243 | 0.0 | 0.0 | 0.00 | 0.00 | 0.00 | 56 | 1015.4 |
| 20260508001524 | 55 | 243 | 1.0 | 3.0 | 0.00 | 0.00 | 0.00 | 53 | 1015.3 |
| 20260508000022 | 55 | 242 | 1.0 | 4.0 | 0.00 | 0.00 | 0.00 | 49 | 1015.1 |
| 20260507234530 | 56 | 231 | 2.0 | 7.0 | 0.00 | 0.00 | 0.00 | 49 | 1014.9 |
| 20260507233025 | 57 | 269 | 2.0 | 6.0 | 0.00 | 0.00 | 0.00 | 47 | 1015.0 |
| 20260507231521 | 57 | 269 | 2.0 | 8.0 | 0.00 | 0.00 | 0.00 | 48 | 1014.9 |
| 20260507230021 | 58 | 272 | 4.0 | 10.0 | 0.00 | 0.00 | 0.00 | 45 | 1014.9 |
| 20260507224522 | 58 | 249 | 5.0 | 9.0 | 0.00 | 0.00 | 0.00 | 44 | 1015.0 |
| 20260507223021 | 58 | 271 | 3.0 | 9.0 | 0.00 | 0.00 | 0.00 | 44 | 1015.3 |
| 20260507221519 | 59 | 265 | 5.0 | 12.0 | 0.00 | 0.00 | 0.00 | 45 | 1015.3 |
| 20260507220021 | 59 | 259 | 5.0 | 11.0 | 0.00 | 0.00 | 0.00 | 42 | 1015.3 |
| 20260507214526 | 57 | 248 | 3.0 | 10.0 | 0.00 | 0.00 | 0.00 | 46 | 1015.3 |
| 20260507213019 | 59 | 223 | 5.0 | 11.0 | 0.00 | 0.00 | 0.00 | 47 | 1015.0 |
| 20260507211525 | 59 | 259 | 6.0 | 12.0 | 0.00 | 0.00 | 0.00 | 44 | 1014.9 |
| 20260507210019 | 59 | 206 | 7.0 | 12.0 | 0.00 | 0.00 | 0.00 | 47 | 1015.0 |
| 20260507204521 | 58 | 274 | 5.0 | 11.0 | 0.00 | 0.00 | 0.00 | 45 | 1015.0 |
| 20260507203020 | 59 | 259 | 5.0 | 13.0 | 0.00 | 0.00 | 0.00 | 48 | 1014.9 |
| 20260507201518 | 59 | 245 | 5.0 | 10.0 | 0.00 | 0.00 | 0.00 | 45 | 1014.7 |
| 20260507200020 | 59 | 278 | 5.0 | 11.0 | 0.00 | 0.00 | 0.00 | 48 | 1015.0 |
| 20260507194517 | 58 | 263 | 5.0 | 13.0 | 0.00 | 0.00 | 0.00 | 48 | 1015.0 |
| 20260507193021 | 59 | 259 | 3.0 | 12.0 | 0.00 | 0.00 | 0.00 | 49 | 1015.1 |
| 20260507191527 | 59 | 267 | 7.0 | 13.0 | 0.00 | 0.00 | 0.00 | 49 | 1015.1 |
| 20260507190020 | 58 | 264 | 5.0 | 12.0 | 0.00 | 0.00 | 0.00 | 49 | 1015.3 |
| 20260507184523 | 58 | 265 | 6.0 | 13.0 | 0.00 | 0.00 | 0.00 | 50 | 1015.2 |
| 20260507183020 | 58 | 288 | 5.0 | 15.0 | 0.00 | 0.00 | 0.00 | 52 | 1015.3 |
| 20260507181520 | 57 | 53 | 5.0 | 13.0 | 0.00 | 0.00 | 0.00 | 50 | 1015.4 |
| 20260507180024 | 57 | 308 | 3.0 | 10.0 | 0.00 | 0.00 | 0.00 | 54 | 1015.3 |